sat.trackr.live / text

‹ back to catalog

STARLINK-32675

NORAD 62208 · 2024-229S

PAYLOAD ACTIVE UNKNOWN

§ Identity

Operator
Country
US
Launch date
2024-12-04
Launch site
AFETR
Launch vehicle
Mass (kg)
RCS (m²)

Purposes: comms

External: N2YO · Heavens-Above · Gunter

§ Orbital elements

Epoch: 2026-09-21T08:06:18.874944Z

Period
94.27 min
Inclination
43.0025°
Eccentricity
0.0001303
Mean motion
15.27586658 rev/d
Perigee alt
482.1 km
Apogee alt
483.9 km
Semi-major
6,861.2 km
B*
3.1726e-4
RAAN
245.7621°
Arg perigee
267.2177°
Mean anomaly
92.8526°
Rev number
10,048

§ Raw data

STARLINK-326751 62208U 24229S   26264.33771846  .00008480  00000+0  31726-3 0  99972 62208  43.0025 245.7621 0001303 267.2177  92.8526 15.27586658100488

JSON: /api/v1/satellites/62208 · /tle

For live sub-satellite position, see the globe view (requires WebGL).

§ Visibility from observer

Set your observer location to see the next 7 days of passes ≥ 10°. The values pass through the URL so the page stays shareable.

No JS? Fill the form by hand. The geolocation button needs JavaScript.